Weather in Nunspeet

Netherlands     52°22′46″N   5°46′43″E
temp.,
°C
wind,
m/s
gust,
m/s
humid.,
%
clouds,
%
prec.,
mm/h
press.,
hPa
HPBL,
m
22 april, thu
thu2223:00+3n397438 0.0 1023270
02:00+2n257211 0.0 1024111
05:00+2nnw2480100 0.0 102452
08:00+5nnw3875100 0.0 1025459
11:00+9nnw5658100 0.0 10261286
14:00+10nw665420 0.0 10271299
17:00+9nw675714 0.0 10271074
20:00+7nnw576924 0.0 1027485
23 april, fri
fri2323:00+3n23875 0.0 102843
02:00+2n22895 0.0 102916
05:00+2nnw11885 0.0 102911
08:00+4nnw12784 0.0 103098
11:00+9nnw34525 0.0 1030983
14:00+11nw454865 0.0 10301165
17:00+11nw55515 0.0 10291071
20:00+8n36675 0.0 1029182
24 april, sat
sat2423:00+4nne368770 0.0 1030105
02:00+2ne2391100 0.0 102938
05:00+2ne2290100 0.0 102918
08:00+4nne2483100 0.0 1029133
11:00+9nne4564100 0.0 1029955
14:00+11n5554100 0.0 10281427
17:00+11nne6654100 0.0 10271318
20:00+7nne5869100 0.0 1028589
25 april, sun
sun2523:00+2nne38875 0.0 1029179
02:00+1nne36905 0.0 1029116
05:000nne35925 0.0 102987
08:00+3nne37805 0.0 1028227
11:00+8nne455933 0.0 1028995
14:00+11n4551100 0.0 10271245
17:00+11nne55515 0.0 10261162
20:00+7nne576721 0.0 1025460
26 april, mon
mon2623:00+2nne36900 0.0 1025111
02:00+1nne34948 0.0 102465
05:00+5nne1480100 0.0 1022200
08:00+5nne348096 0.0 1022178
11:00+9ne3466100 0.0 1020968
14:00+9ne4467100 0.0 10191106
17:00+10ne4565100 0.0 10161152
20:00+8ne4771100 0.0 1015455